AirNav   Pilot Hours Calculator
 
 1379 users online  

2N6 Redwing Airport
Jobstown, New Jersey, USA

GOING TO JOBSTOWN?


FAA INFORMATION EFFECTIVE 22 APRIL 2021

Location

FAA Identifier: 2N6
Lat/Long: 40-01-37.5000N 074-41-27.2000W
40-01.625000N 074-41.453333W
40.0270833,-74.6908889
(estimated)
Elevation: 78 ft. / 24 m (estimated)
Variation: 12W (1985)
From city: 1 mile S of JOBSTOWN, NJ
Time zone: UTC -4 (UTC -5 during Standard Time)
Zip code: 08041

Airport Operations

Airport use: Open to the public
Activation date: 03/1960
Control tower: no
ARTCC: NEW YORK CENTER
FSS: MILLVILLE FLIGHT SERVICE STATION
NOTAMs facility: MIV (NOTAM-D service available)
Attendance: IREG
Wind indicator: yes
Segmented circle: no

Airport Communications

CTAF: 122.9
WX ASOS at VAY (9 nm SW): 119.325 (609-267-1176)
WX ASOS at PNE (15 nm W): 121.15 (215-677-0146)
WX ASOS at TTN (16 nm N): 126.775 (609-538-8690)
WX AWOS-3PT at MJX (19 nm E): 119.875 (732-797-2542)

Nearby radio navigation aids

VOR radial/distance  VOR name  Freq  Var
GXUr296/4.5MC GUIRE VORTAC110.6012W
RBVr231/13.8ROBBINSVILLE VORTAC113.8010W
ARDr154/16.8YARDLEY VOR/DME108.2010W
CYNr327/17.3COYLE VORTAC113.4010W
COLr246/29.7COLTS NECK VOR/DME115.4011W
VCNr033/32.0CEDAR LAKE VOR/DME115.2010W
SBJr186/33.4SOLBERG VOR/DME112.9010W
ACYr001/34.7ATLANTIC CITY VORTAC117.1510W
OODr060/36.7WOODSTOWN VORTAC112.8010W

 
NDB name  Hdg/Dist  Freq  Var  ID
LAKEHURST277/16.439611WNEL -. . .-..
AMBLER114/27.927512WING .. -. --.

Airport Services

Parking: tiedowns
Airframe service: MINOR
Powerplant service: MINOR
Bottled oxygen: NONE
Bulk oxygen: NONE

Runway Information

Runway 6/24

Dimensions: 1830 x 50 ft. / 558 x 15 m
Surface: turf, in good condition
RUNWAY 6  RUNWAY 24
Traffic pattern: leftleft
Obstructions: 56 ft. trees, 725 ft. from runway, 155 ft. left of centerline, 12:1 slope to clear
RY 06 FIRST HALF, TREES WITHIN 90 FT OF CTLN.
15 ft. road
RWY 24 ADDTNL OBSTRS, +35 TO +62 FT TREES, DIST 320-400 FT, 80-120 FT L.

Runway 11/29

Dimensions: 1590 x 70 ft. / 485 x 21 m
Surface: turf, in good condition
Runway edge lights: non-standard
RUNWAY 11  RUNWAY 29
Latitude: 40-01.645168N40-01.606395N
Longitude: 074-41.622142W074-41.285158W
Elevation: 73.0 ft.78.0 ft.
Traffic pattern: rightleft
Runway heading: 111 magnetic, 099 true291 magnetic, 279 true
Obstructions: 38 ft. trees, 10 ft. from runway, 100 ft. left of centerline63 ft. tree, 1500 ft. from runway, 23:1 slope to clear

Airport Ownership and Management from official FAA records

Ownership: Privately-owned
Owner: CENTRAL JERSEY R.W. INC
PO BOX 186
CROSSWICKS, NJ 08515
Phone 609-298-6645
Manager: GEORGE P. DENGLER
PO BOX 186
CROSSWICKS, NJ 08515
Phone 609-298-6645

Airport Operational Statistics

Aircraft based on the field: 5
Single engine airplanes: 4
Helicopters: 1
    
Aircraft operations: avg 56/week *
80% local general aviation
20% transient general aviation
* for 12-month period ending 02 May 2019

Additional Remarks

NIGHT LANDINGS PROHIBITED DUE TO PERMANENT REDUCTION IN LENGTH OF RWY 11/29.
NSTD LIGHTING RY 11/29 OTS INDEFLY.
FOR CD CTC MC GUIRE APCH AT 609-754-2767.
DEER & BIRDS ON & INVOF ARPT.

Instrument Procedures

There are no published instrument procedures at 2N6.

Some nearby airports with instrument procedures:

KWRI - McGuire Field (Joint Base Mc Guire Dix Lakehurst) Airport (5 nm E)
N14 - Flying W Airport (8 nm SW)
KVAY - South Jersey Regional Airport (9 nm SW)
N87 - Trenton-Robbinsville Airport (12 nm N)
KPNE - Northeast Philadelphia Airport (15 nm W)
KNEL - Lakehurst Maxfield Field Airport (16 nm E)
KTTN - Trenton Mercer Airport (16 nm N)
19N - Camden County Airport (19 nm SW)
KMJX - Ocean County Airport (19 nm E)
 
Loc | Ops | Rwys | IFR | FBO | Links
Com | Nav | Svcs | Stats | Notes
Area around 2N6 (Redwing Airport)
 
Road maps at: MapQuest Bing Google
 
Aerial photo
WARNING: Photo may not be current or correct
Aerial photo of 2N6 (Redwing Airport)
Looking north.

Do you have a better or more recent aerial photo of Redwing Airport that you would like to share? If so, please send us your photo.

 
Sectional chart

 
Airport distance calculator
Flying to Redwing Airport? Find the distance to fly.

From to 2N6

Sunrise and sunset
Times for 23-Apr-2021
 Local
(UTC-4)
 Zulu
(UTC)
Morning civil twilight05:4209:42
Sunrise06:1010:10
Sunset19:4423:44
Evening civil twilight20:1300:13

Current date and time
Zulu (UTC)  23-Apr-2021 14:44:12
Local (UTC-4)  23-Apr-2021 10:44:12
 
METAR
KWRI 
5nm E 
231356Z AUTO 29011G19KT 10SM CLR 10/M04 A3008 RMK AO2 SLP186 T00991045
KVAY 
9nm SW 
ASOS 119.325 609-267-1176
231354Z AUTO 27007KT 240V300 10SM CLR 09/M03 A3010 RMK AO2 SLP193 T00891028
KPNE 
15nm W 
231354Z 26015KT 9SM CLR 09/M03 A3011 RMK AO2 SLP196 T00941028
KTTN 
16nm N 
ASOS 133.70 609-538-8690
231353Z 29009G18KT 10SM CLR 08/M03 A3008 RMK AO2 SLP180 T00831033
KNEL 
16nm E 
231400Z 28012G25KT 10SM CLR 16/M05 A3007 RMK AO2 SLP182 T01561050
KMJX 
19nm E 
AWOS-3 119.875 732-244-4450
231356Z AUTO 29014G23KT 10SM CLR 09/M06 A3009 RMK AO2 SLP193 T00941056
TAF
KWRI 
5nm E 
231000Z 2310/2416 29009KT 9999 SCT080 QNH3004INS BECMG 2313/2314 27015G25KT 9999 SKC QNH2997INS BECMG 2322/2323 25009KT 9999 FEW060 QNH3000INS BECMG 2412/2413 28007KT 9999 FEW120 QNH3004INS TX16/2319Z TN03/2310Z
KPNE 
15nm W 
231123Z 2312/2412 VRB03KT P6SM SKC FM231300 28010KT P6SM SKC FM231500 27016G24KT P6SM SKC FM232300 26009KT P6SM SCT250 FM240500 VRB04KT P6SM SCT250
KTTN 
16nm N 
231123Z 2312/2412 28006KT P6SM SKC FM231300 28010KT P6SM SKC FM231500 28015G24KT P6SM SKC FM232300 28008KT P6SM SCT250 FM240400 VRB03KT P6SM SCT250
NOTAMs
Click for the latest NOTAMs
NOTAMs are issued by the DoD/FAA and will open in a separate window not controlled by AirNav.

 

 
 

Would you like to see your business listed on this page?

 If your business provides an interesting product or service to pilots, flight crews, aircraft, or users of the Redwing Airport, you should consider listing it here.  To start the listing process, click on the button below
 
Add a business
 

Other Pages about Redwing Airport

Update a link
 
Copyright © AirNav, LLC. All rights reserved. Privacy Policy  Contact